Miscellaneous Local Product
Issued by NWS North Platte, NE

Home | Current Version | Previous Version | Text Only | Print | Product List | Glossary On
Versions: 1 2 3 4 5 6 7 8 9 10 11 12 13 14 15 16 17 18 19 20 21 22 23 24 25 26 27 28 29 30 31 32 33 34 35 36 37 38 39 40 41 42 43 44 45 46 47 48 49 50
000
AXUS43 KLBF 270410
MISLBF


WESTERN AND NORTH CENTRAL NEBRASKA HOURLY WEATHER ROUNDUP
NATIONAL WEATHER SERVICE NORTH PLATTE NE
1100 PM CDT MON JUN 26 2017

NOTE: "FAIR" INDICATES FEW OR NO CLOUDS BELOW 12,000 FEET WITH NO
SIGNIFICANT WEATHER AND/OR OBSTRUCTIONS TO VISIBILITY.

NOTE: STATIONS NOT REPORTING VARIABLES SUCH AS SKY/WEATHER OR
PRESSURE ARE PROVIDED BY RAWS AND APRS NETWORKS AND ARE NOT UNDER
NATIONAL WEATHER SERVICE QUALITY CONTROL.

...OBSERVATIONS IN AND NEAR THE EASTERN PANHANDLE OF NEBRASKA...

CITY           SKY/WX    TMP DP  RH WIND       PRES   REMARKS
PINE RIDGE     CLEAR     67  41  38 SE13G21   30.05S
GORDON         FAIR      59  42  53 SE7       30.08S
CHADRON        CLEAR     70  38  31 SE17      30.02S
ALLIANCE       CLEAR     62  39  42 SE12      30.09R
SIDNEY         CLEAR     65  52  62 SE14      30.14R
CRESCENT LAKE    N/A     65  43  44 SE7G15      N/A
$$

...OBSERVATIONS IN NORTHERN NEBRASKA AND FAR SOUTHERN SOUTH DAKOTA...

CITY           SKY/WX    TMP DP  RH WIND       PRES   REMARKS
WINNER         FAIR      58  39  49 SE10      30.10S
VALENTINE      CLEAR     64  38  38 SE10      30.10S
THEDFORD       PTCLDY    62  43  49 SE8       30.14R
AINSWORTH      CLEAR     57  43  59 SE8       30.12F
O`NEILL        CLEAR     60  44  55 SE6       30.15R
ORD            PTCLDY    59  46  62 E3        30.13R
BROKEN BOW     CLEAR     60  46  59 E6        30.14R
VALENTINE NWR    N/A     63  40  43 SE10        N/A
HALSEY           N/A     63  42  45 SE5         N/A
BUTTE            N/A     58  40  51 SE7         N/A
CHAMBERS         N/A     59  39  47 CALM        N/A
EWING            N/A     56  47  70 CALM        N/A
$$

...OBSERVATIONS IN SOUTHWEST NEBRASKA AND FAR NORTHEAST COLORADO...

CITY           SKY/WX    TMP DP  RH WIND       PRES   REMARKS
WRAY           FAIR      66  55  68 E12G18    30.14R
IMPERIAL       CLEAR     65  55  70 SE10      30.12R
OGALLALA       CLEAR     67  46  48 SE9       30.12R
NORTH PLATTE   CLEAR     56  50  80 E8        30.13R
MCCOOK         CLEAR     66  59  78 E8        30.12R
LEXINGTON      CLEAR     64  51  64 E9        30.13S
STAPLETON        N/A     61  45  56 CALM        N/A
GOTHENBURG       N/A     62  49  63 E5          N/A
CALLAWAY         N/A     63  47  55 SE8         N/A
$$

...OBSERVATIONS IN CENTRAL LINCOLN COUNTY AREA...

CITY           SKY/WX    TMP DP  RH WIND       PRES   REMARKS
N.P. AIRPORT   CLEAR     56  50  80 E8        30.13R
N.P. DOWNTOWN    N/A     65  50  58 CALM        N/A
N.P. SOUTHEAST   N/A     62  49  62 CALM        N/A
N.P. HILLCREST   N/A     62  47  59 SE9         N/A
$$

...SOME OBSERVATIONS FROM AROUND THE REGION...

CITY           SKY/WX    TMP DP  RH WIND       PRES   REMARKS
DENVER         PTCLDY    72  47  40 SE15      30.12R
LIMON          CLOUDY    64  55  72 SE9       30.19R
ASPEN          CLOUDY    59  33  37 SW10      30.26R
LARAMIE        CLEAR     65  41  41 SE22      30.20R
CASPER         PTCLDY    71  44  37 SE9       29.99S
CHEYENNE       CLEAR     66  52  60 SE17G23   30.18R
SCOTTSBLUFF    CLEAR     69  43  38 SE14      30.08R
GRAND ISLAND   PTCLDY    60  52  74 SE6       30.15R
OMAHA          PTCLDY    63  50  62 NW3       30.14R
SIOUX FALLS    CLEAR     57  47  69 CALM      30.15R
PIERRE         PTCLDY    59  39  47 SE9       30.06S
RAPID CITY     CLEAR     64  39  39 SE14      30.01S
BISMARCK       CLEAR     60  45  57 SE8       30.00F
KANSAS CITY    CLEAR     61  58  90 NE7       30.14R
HILL CITY      CLEAR     67  59  75 E8        30.11R
WICHITA        CLOUDY    68  64  87 E13       30.06R
DODGE CITY     CLOUDY    73  63  70 SE5       30.07R
OKLAHOMA CITY  PTCLDY    75  58  55 S10       30.05R
DALLAS         MOCLDY    79  71  76 SE6       30.02R
AMARILLO       CLOUDY    73  59  61 S12       30.14R
$$




USA.gov is the U.S. government's official web portal to all federal, state and local government web resources and services.